Date String (YYYY-MM-DD hh:mm:ss) UTC,Instrument flags,Ambient pressure (hPa),Sample flow (lpm),Bypass flow (lpm),Sample temperature (°C),Ambient temperature (°C),ASC tube jacket temperature (°C),LED temperature (°C),Box temperature (°C),Sample RH (%),Span deviation,Mass concentration (μg/m³),Mass concentration (μg/m³),Mass concentration (μg/m³)
DateTimeUTC,F1_M11,P_M11,Q1_M11,Q2_M11,T1_M11,T2_M11,T3_M11,T4_M11,T5_M11,U1_M11,ZSPAN_M11,X0_M11,X2_M11,X1_M11
2022-06-25 01:00:00,,0827.0,4.99,0.00,29.3,28.3,00.0,38.0,31.3,30.2,0000.0,0009.56,0003.88,0002.73
2022-06-25 01:01:00,,0827.1,5.00,0.00,29.3,28.4,00.0,38.0,31.3,30.8,0000.0,0009.74,0003.88,0002.74
2022-06-25 01:02:00,,0827.0,5.00,0.00,29.3,28.5,00.0,38.0,31.4,31.1,0000.0,0009.62,0003.92,0002.76
2022-06-25 01:03:00,,0827.1,5.00,0.00,29.3,28.1,00.0,38.0,31.3,31.6,0000.0,0009.89,0003.97,0002.77
2022-06-25 01:04:00,,0827.0,4.98,0.00,29.3,27.5,00.0,38.0,31.1,31.3,0000.0,0010.54,0003.99,0002.78
2022-06-25 01:05:00,,0827.2,5.01,0.00,29.2,27.3,00.0,38.0,31.0,31.2,0000.0,0010.68,0003.95,0002.77
2022-06-25 01:06:00,,0827.2,5.01,0.00,29.2,27.4,00.0,38.0,31.0,33.3,0000.0,0011.36,0003.95,0002.78
2022-06-25 01:07:00,,0827.2,4.99,0.00,29.2,27.5,00.0,38.0,31.0,34.8,0000.0,0011.55,0003.95,0002.78
2022-06-25 01:08:00,,0827.2,5.02,0.00,29.3,27.6,00.0,38.0,31.1,35.4,0000.0,0011.67,0003.96,0002.78
2022-06-25 01:09:00,,0827.2,4.99,0.00,29.5,27.7,00.0,38.0,31.3,34.8,0000.0,0012.58,0003.97,0002.77
2022-06-25 01:10:00,,0827.3,5.00,0.00,29.8,27.9,00.0,38.0,31.4,33.1,0000.0,0012.95,0003.97,0002.77
2022-06-25 01:11:00,,0827.2,5.00,0.00,29.9,28.0,00.0,38.1,31.4,33.3,0000.0,0013.38,0003.98,0002.74
2022-06-25 01:12:00,,0827.2,5.00,0.00,30.0,28.1,00.0,38.1,31.5,32.8,0000.0,0013.76,0003.98,0002.75
2022-06-25 01:13:00,,0827.2,5.00,0.00,30.1,28.3,00.0,38.2,31.5,33.0,0000.0,0013.37,0003.98,0002.76
2022-06-25 01:14:00,,0827.2,5.00,0.00,30.1,28.4,00.0,38.3,31.5,32.3,0000.0,0014.26,0004.04,0002.75
2022-06-25 01:15:00,,0827.2,5.00,0.00,30.2,28.5,00.0,38.3,31.5,30.9,0000.0,0014.87,0004.00,0002.74
2022-06-25 01:16:00,,0827.3,5.00,0.00,30.2,28.3,00.0,38.3,31.5,31.1,0000.0,0015.43,0004.02,0002.74
2022-06-25 01:17:00,,0827.2,5.01,0.00,30.1,27.7,00.0,38.3,31.3,31.9,0000.0,0015.66,0004.06,0002.76
2022-06-25 01:18:00,,0827.2,4.99,0.00,30.1,27.4,00.0,38.3,31.2,31.8,0000.0,0015.86,0004.07,0002.76
2022-06-25 01:19:00,,0827.2,5.01,0.00,30.0,27.4,00.0,38.4,31.2,33.2,0000.0,0015.52,0004.05,0002.77
2022-06-25 01:20:00,,0827.2,5.00,0.00,29.9,27.4,00.0,38.4,31.2,32.6,0000.0,0014.86,0004.01,0002.80
2022-06-25 01:21:00,,0827.3,5.00,0.00,29.9,27.6,00.0,38.4,31.2,32.4,0000.0,0013.55,0004.01,0002.81
2022-06-25 01:22:00,,0827.4,5.01,0.00,29.9,27.7,00.0,38.4,31.3,31.5,0000.0,0013.80,0003.99,0002.84
2022-06-25 01:23:00,,0827.2,5.00,0.00,29.9,27.9,00.0,38.4,31.3,31.5,0000.0,0013.27,0003.98,0002.86
2022-06-25 01:24:00,,0827.2,5.01,0.00,29.9,28.0,00.0,38.4,31.4,30.8,0000.0,0013.64,0004.00,0002.87
2022-06-25 01:25:00,,0827.2,5.02,0.00,29.9,28.1,00.0,38.5,31.4,31.3,0000.0,0013.26,0003.95,0002.90
2022-06-25 01:26:00,,0827.2,5.01,0.00,29.9,28.3,00.0,38.5,31.5,32.0,0000.0,0012.86,0003.98,0002.91
2022-06-25 01:27:00,,0827.3,5.00,0.00,29.9,28.4,00.0,38.5,31.5,29.9,0000.0,0012.13,0003.92,0002.90
2022-06-25 01:28:00,,0827.3,5.00,0.00,29.9,28.5,00.0,38.5,31.5,31.0,0000.0,0011.68,0003.89,0002.90
2022-06-25 01:29:00,,0827.3,4.99,0.00,29.9,28.5,00.0,38.5,31.6,31.6,0000.0,0011.47,0003.96,0002.92
2022-06-25 01:30:00,,0827.2,5.01,0.00,29.9,28.2,00.0,38.5,31.5,31.0,0000.0,0011.56,0003.98,0002.91
2022-06-25 01:31:00,,0827.2,4.99,0.00,29.9,27.5,00.0,38.4,31.3,29.5,0000.0,0011.59,0003.99,0002.89
2022-06-25 01:32:00,,0827.1,4.99,0.00,29.8,27.0,00.0,38.4,31.1,29.2,0000.0,0011.67,0004.00,0002.87
2022-06-25 01:33:00,,0827.2,5.00,0.00,29.7,26.9,00.0,38.4,31.0,29.7,0000.0,0011.25,0003.99,0002.86
2022-06-25 01:34:00,,0827.2,5.00,0.00,29.6,27.0,00.0,38.3,31.0,30.3,0000.0,0010.82,0004.00,0002.84
2022-06-25 01:35:00,,0827.2,5.00,0.00,29.5,27.1,00.0,38.3,31.0,30.6,0000.0,0010.45,0004.00,0002.83
2022-06-25 01:36:00,,0827.2,5.00,0.00,29.5,27.3,00.0,38.3,31.1,29.0,0000.0,0010.13,0003.96,0002.81
2022-06-25 01:37:00,,0827.2,5.01,0.00,29.5,27.4,00.0,38.3,31.1,29.3,0000.0,0009.60,0003.88,0002.79
2022-06-25 01:38:00,,0827.2,5.00,0.00,29.5,27.6,00.0,38.3,31.2,30.1,0000.0,0008.78,0003.87,0002.78
2022-06-25 01:39:00,,0827.4,5.00,0.00,29.5,27.8,00.0,38.3,31.2,29.9,0000.0,0008.61,0003.86,0002.75
2022-06-25 01:40:00,,0827.3,5.00,0.00,29.5,27.9,00.0,38.3,31.2,28.7,0000.0,0008.25,0003.77,0002.71
2022-06-25 01:41:00,,0827.3,5.00,0.00,29.5,28.1,00.0,38.3,31.3,30.0,0000.0,0008.17,0003.71,0002.69
2022-06-25 01:42:00,,0827.4,5.00,0.00,29.6,28.2,00.0,38.3,31.3,30.6,0000.0,0008.38,0003.73,0002.68
2022-06-25 01:43:00,,0827.4,5.00,0.00,29.6,28.3,00.0,38.3,31.4,30.7,0000.0,0008.26,0003.70,0002.68
2022-06-25 01:44:00,,0827.4,4.98,0.00,29.6,28.4,00.0,38.3,31.4,30.5,0000.0,0008.46,0003.75,0002.67
2022-06-25 01:45:00,,0827.4,4.99,0.00,29.6,28.5,00.0,38.3,31.4,31.0,0000.0,0009.03,0003.77,0002.67
2022-06-25 01:46:00,,0827.4,5.00,0.00,29.7,28.5,00.0,38.3,31.5,30.0,0000.0,0008.92,0003.71,0002.64
2022-06-25 01:47:00,,0827.4,5.00,0.00,29.7,28.5,00.0,38.4,31.5,29.1,0000.0,0008.82,0003.71,0002.62
2022-06-25 01:48:00,,0827.4,5.00,0.00,29.7,28.0,00.0,38.3,31.4,29.0,0000.0,0008.67,0003.72,0002.61
2022-06-25 01:49:00,,0827.4,5.00,0.00,29.6,27.5,00.0,38.3,31.2,29.9,0000.0,0008.81,0003.74,0002.61
2022-06-25 01:50:00,,0827.3,4.99,0.00,29.5,27.4,00.0,38.3,31.2,30.4,0000.0,0009.34,0003.79,0002.63
2022-06-25 01:51:00,,0827.3,5.00,0.00,29.5,27.4,00.0,38.2,31.1,30.8,0000.0,0009.32,0003.81,0002.66
2022-06-25 01:52:00,,0827.3,5.00,0.00,29.5,27.5,00.0,38.2,31.1,30.9,0000.0,0009.17,0003.81,0002.66
2022-06-25 01:53:00,,0827.2,5.00,0.00,29.5,27.6,00.0,38.2,31.2,30.6,0000.0,0008.95,0003.78,0002.67
2022-06-25 01:54:00,,0827.2,5.01,0.00,29.5,27.8,00.0,38.2,31.2,29.2,0000.0,0009.61,0003.81,0002.68
2022-06-25 01:55:00,,0827.2,5.00,0.00,29.5,27.9,00.0,38.2,31.3,28.9,0000.0,0009.71,0003.80,0002.70
2022-06-25 01:56:00,,0827.3,5.00,0.00,29.5,28.1,00.0,38.2,31.3,29.0,0000.0,0009.43,0003.79,0002.70
2022-06-25 01:57:00,,0827.2,5.00,0.00,29.5,28.2,00.0,38.3,31.3,27.7,0000.0,0009.95,0003.83,0002.72
2022-06-25 01:58:00,,0827.2,4.99,0.00,29.5,28.3,00.0,38.3,31.4,27.4,0000.0,0010.29,0003.86,0002.74
2022-06-25 01:59:00,,0827.4,4.99,0.00,29.5,28.4,00.0,38.3,31.4,27.4,0000.0,0010.83,0003.87,0002.75
